Time,TemperatureF,DewpointF,PressureIn,WindDirection,WindDirectionDegrees,WindSpeedMPH,WindSpeedGustMPH,Humidity,HourlyPrecipIn,Conditions,Clouds,dailyrainin,SoftwareType,DateUTC
2013-02-07 00:00:00,27.7,22.6,30.18,SE,135,1.0,5.0,81,0.00,,---,0.00,VWS V14.01,2013-02-07 05:00:00,
2013-02-07 00:30:00,27.7,22.9,30.18,ESE,112,1.0,6.0,82,0.00,,---,0.00,VWS V14.01,2013-02-07 05:30:00,
2013-02-07 01:00:00,27.8,23.0,30.18,ESE,112,1.0,5.0,82,0.00,,---,0.00,VWS V14.01,2013-02-07 06:00:00,
2013-02-07 01:30:00,27.6,23.1,30.16,ESE,112,1.0,5.0,83,0.00,,---,0.00,VWS V14.01,2013-02-07 06:30:00,
2013-02-07 02:00:00,27.7,23.2,30.14,ESE,112,1.0,7.0,83,0.00,,---,0.00,VWS V14.01,2013-02-07 07:00:00,
2013-02-07 02:30:00,27.8,23.6,30.14,ESE,112,1.0,7.0,84,0.00,,---,0.00,VWS V14.01,2013-02-07 07:30:00,
2013-02-07 03:00:00,27.6,23.4,30.14,SE,135,1.0,5.0,84,0.00,,---,0.00,VWS V14.01,2013-02-07 08:00:00,
2013-02-07 03:30:00,27.3,23.4,30.14,ENE,68,1.0,4.0,85,0.00,,---,0.00,VWS V14.01,2013-02-07 08:30:00,
2013-02-07 04:00:00,26.8,22.9,30.14,East,90,1.0,3.0,85,0.00,,---,0.00,VWS V14.01,2013-02-07 09:00:00,
2013-02-07 04:30:00,27.0,23.1,30.13,East,90,1.0,6.0,85,0.00,,---,0.00,VWS V14.01,2013-02-07 09:30:00,
2013-02-07 05:00:00,26.8,23.2,30.14,ESE,112,1.0,5.0,86,0.00,,---,0.00,VWS V14.01,2013-02-07 10:00:00,
2013-02-07 05:30:00,26.8,23.5,30.13,SSE,158,1.0,6.0,87,0.00,,---,0.00,VWS V14.01,2013-02-07 10:30:00,
2013-02-07 06:00:00,27.0,23.6,30.14,East,90,1.0,5.0,87,0.00,,---,0.00,VWS V14.01,2013-02-07 11:00:00,
2013-02-07 06:30:00,26.8,23.5,30.13,East,90,1.0,8.0,87,0.00,,---,0.00,VWS V14.01,2013-02-07 11:30:00,
2013-02-07 07:00:00,26.6,23.0,30.13,ESE,112,1.0,7.0,86,0.00,,---,0.00,VWS V14.01,2013-02-07 12:00:00,
2013-02-07 07:30:00,26.8,23.5,30.12,East,90,1.0,4.0,87,0.00,,---,0.00,VWS V14.01,2013-02-07 12:30:00,
2013-02-07 08:00:00,27.0,23.4,30.12,East,90,1.0,4.0,86,0.00,,---,0.00,VWS V14.01,2013-02-07 13:00:00,
2013-02-07 08:30:00,27.4,23.8,30.11,East,90,1.0,6.0,86,0.00,,---,0.00,VWS V14.01,2013-02-07 13:30:00,
2013-02-07 09:00:00,27.9,23.7,30.11,East,90,1.0,3.0,84,0.00,,---,0.00,VWS V14.01,2013-02-07 14:00:00,
2013-02-07 09:30:00,28.6,24.1,30.11,East,90,1.0,8.0,83,0.00,,---,0.00,VWS V14.01,2013-02-07 14:30:00,
2013-02-07 10:00:00,30.2,25.1,30.09,East,90,2.0,9.0,81,0.00,,---,0.00,VWS V14.01,2013-02-07 15:00:00,
2013-02-07 10:30:00,31.0,25.3,30.08,East,90,1.0,6.0,79,0.00,,---,0.00,VWS V14.01,2013-02-07 15:30:00,
2013-02-07 11:00:00,32.7,26.3,30.06,ESE,112,2.0,9.0,77,0.00,,---,0.00,VWS V14.01,2013-02-07 16:00:00,
2013-02-07 11:30:00,35.0,27.6,30.06,SE,135,2.0,7.0,74,0.00,,---,0.00,VWS V14.01,2013-02-07 16:30:00,
2013-02-07 12:00:00,36.0,27.9,30.04,ESE,112,2.0,8.0,72,0.00,,---,0.00,VWS V14.01,2013-02-07 17:00:00,
2013-02-07 12:30:00,37.5,28.3,30.02,SE,135,2.0,6.0,69,0.00,,---,0.00,VWS V14.01,2013-02-07 17:30:00,
2013-02-07 13:00:00,38.7,29.4,30.01,SE,135,2.0,6.0,69,0.00,,---,0.00,VWS V14.01,2013-02-07 18:00:00,
2013-02-07 13:30:00,39.6,29.6,29.98,SSE,158,1.0,5.0,67,0.00,,---,0.00,VWS V14.01,2013-02-07 18:30:00,
2013-02-07 14:00:00,40.3,30.2,29.96,SE,135,2.0,7.0,67,0.00,,---,0.00,VWS V14.01,2013-02-07 19:00:00,
2013-02-07 14:30:00,40.2,30.9,29.94,East,90,2.0,7.0,69,0.00,,---,0.00,VWS V14.01,2013-02-07 19:30:00,
2013-02-07 15:00:00,40.8,31.1,29.92,East,90,2.0,8.0,68,0.00,,---,0.00,VWS V14.01,2013-02-07 20:00:00,
2013-02-07 15:30:00,41.4,30.9,29.91,East,90,1.0,5.0,66,0.00,,---,0.00,VWS V14.01,2013-02-07 20:30:00,
2013-02-07 16:00:00,40.3,31.0,29.90,East,90,1.0,5.0,69,0.00,,---,0.00,VWS V14.01,2013-02-07 21:00:00,
2013-02-07 16:30:00,39.8,31.2,29.89,East,90,1.0,4.0,71,0.00,,---,0.00,VWS V14.01,2013-02-07 21:30:00,
2013-02-07 17:00:00,38.6,30.7,29.87,East,90,2.0,5.0,73,0.00,,---,0.00,VWS V14.01,2013-02-07 22:00:00,
2013-02-07 17:30:00,37.7,30.5,29.86,ESE,112,2.0,9.0,75,0.01,,---,0.01,VWS V14.01,2013-02-07 22:30:00,
2013-02-07 18:00:00,36.8,30.6,29.85,East,90,2.0,9.0,78,0.01,,---,0.01,VWS V14.01,2013-02-07 23:00:00,
2013-02-07 18:30:00,36.6,30.7,29.83,East,90,2.0,10.0,79,0.01,,---,0.01,VWS V14.01,2013-02-07 23:30:00,
2013-02-07 19:00:00,36.6,31.0,29.82,East,90,2.0,7.0,80,0.00,,---,0.01,VWS V14.01,2013-02-08 00:00:00,
2013-02-07 19:30:00,36.5,31.2,29.81,East,90,2.0,7.0,81,0.00,,---,0.01,VWS V14.01,2013-02-08 00:30:00,
2013-02-07 20:00:00,36.5,31.2,29.79,East,90,2.0,9.0,81,0.00,,---,0.01,VWS V14.01,2013-02-08 01:00:00,
2013-02-07 20:30:00,36.8,31.8,29.79,ESE,112,2.0,7.0,82,0.00,,---,0.01,VWS V14.01,2013-02-08 01:30:00,
2013-02-07 21:00:00,36.2,32.4,29.80,East,90,1.0,5.0,86,0.00,,---,0.01,VWS V14.01,2013-02-08 02:00:00,
2013-02-07 21:30:00,35.1,32.5,29.80,South,180,1.0,4.0,90,0.02,,---,0.03,VWS V14.01,2013-02-08 02:30:00,
2013-02-07 22:00:00,34.8,32.5,29.80,North,0,1.0,4.0,91,0.05,,---,0.06,VWS V14.01,2013-02-08 03:00:00,
2013-02-07 22:30:00,34.6,32.5,29.78,ENE,68,2.0,6.0,92,0.06,,---,0.07,VWS V14.01,2013-02-08 03:30:00,
2013-02-07 23:00:00,34.2,32.4,29.75,ENE,68,2.0,7.0,93,0.04,,---,0.07,VWS V14.01,2013-02-08 04:00:00,
2013-02-07 23:30:00,33.9,32.4,29.76,East,90,1.0,6.0,94,0.02,,---,0.08,VWS V14.01,2013-02-08 04:30:00,